Year,Month,Day,Hour,Minute,Value (Times are PST for temperature in C)
2012,02,22,00,00,5.50
2012,02,22,00,01,5.40
2012,02,22,00,02,5.40
2012,02,22,00,03,5.40
2012,02,22,00,04,5.40
2012,02,22,00,05,5.40
2012,02,22,00,06,5.40
2012,02,22,00,07,5.40
2012,02,22,00,08,5.40
2012,02,22,00,09,5.40
2012,02,22,00,10,5.40
2012,02,22,00,11,5.40
2012,02,22,00,12,5.40
2012,02,22,00,13,5.40
2012,02,22,00,14,5.30
2012,02,22,00,15,5.30
2012,02,22,00,16,5.30
2012,02,22,00,17,5.30
2012,02,22,00,18,5.30
2012,02,22,00,19,5.30
2012,02,22,00,20,5.30
2012,02,22,00,21,5.30
2012,02,22,00,22,5.30
2012,02,22,00,23,5.30
2012,02,22,00,24,5.30
2012,02,22,00,25,5.30
2012,02,22,00,26,5.30
2012,02,22,00,27,5.30
2012,02,22,00,28,5.30
2012,02,22,00,29,5.30
2012,02,22,00,30,5.30
2012,02,22,00,31,5.30
2012,02,22,00,32,5.30
2012,02,22,00,33,5.30
2012,02,22,00,34,5.30
2012,02,22,00,35,5.30
2012,02,22,00,36,5.30
2012,02,22,00,37,5.30
2012,02,22,00,38,5.30
2012,02,22,00,39,5.30
2012,02,22,00,40,5.30
2012,02,22,00,41,5.40
2012,02,22,00,42,5.40
2012,02,22,00,43,5.40
2012,02,22,00,44,5.40
2012,02,22,00,45,5.40
2012,02,22,00,46,5.40
2012,02,22,00,47,5.40
2012,02,22,00,48,5.40
2012,02,22,00,49,5.50
2012,02,22,00,50,5.50
2012,02,22,00,51,5.50
2012,02,22,00,52,5.50
2012,02,22,00,53,5.50
2012,02,22,00,54,5.50
2012,02,22,00,55,5.50
2012,02,22,00,56,5.40
2012,02,22,00,57,5.40
2012,02,22,00,58,5.40
2012,02,22,00,59,5.50
2012,02,22,01,00,5.40
2012,02,22,01,01,5.40
2012,02,22,01,02,5.40
2012,02,22,01,03,5.40
2012,02,22,01,04,5.40
2012,02,22,01,05,5.40
2012,02,22,01,06,5.40
2012,02,22,01,07,5.40
2012,02,22,01,08,5.50
2012,02,22,01,09,5.50
2012,02,22,01,10,5.50
2012,02,22,01,11,5.50
2012,02,22,01,12,5.50
2012,02,22,01,13,5.50
2012,02,22,01,14,5.50
2012,02,22,01,15,5.50
2012,02,22,01,16,5.60
2012,02,22,01,17,5.60
2012,02,22,01,18,5.60
2012,02,22,01,19,5.60
2012,02,22,01,20,5.60
2012,02,22,01,21,5.60
2012,02,22,01,22,5.60
2012,02,22,01,23,5.60
2012,02,22,01,24,5.60
2012,02,22,01,25,5.60
2012,02,22,01,26,5.60
2012,02,22,01,27,5.60
2012,02,22,01,28,5.70
2012,02,22,01,29,5.70
2012,02,22,01,30,5.70
2012,02,22,01,31,5.70
2012,02,22,01,32,5.70
2012,02,22,01,33,5.70
2012,02,22,01,34,5.70
2012,02,22,01,35,5.70
2012,02,22,01,36,5.70
2012,02,22,01,37,5.70
2012,02,22,01,38,5.70
2012,02,22,01,39,5.70
2012,02,22,01,40,5.70
2012,02,22,01,41,5.70
2012,02,22,01,42,5.70
2012,02,22,01,43,5.70
2012,02,22,01,44,5.60
2012,02,22,01,45,5.70
2012,02,22,01,46,5.60
2012,02,22,01,47,5.60
2012,02,22,01,48,5.60
2012,02,22,01,49,5.60
2012,02,22,01,50,5.60
2012,02,22,01,51,5.60
2012,02,22,01,52,5.60
2012,02,22,01,53,5.60
2012,02,22,01,54,5.60
2012,02,22,01,55,5.60
2012,02,22,01,56,5.60
2012,02,22,01,57,5.60
2012,02,22,01,58,5.60
2012,02,22,01,59,5.60
2012,02,22,02,00,5.60
2012,02,22,02,01,5.60
2012,02,22,02,02,5.60
2012,02,22,02,03,5.50
2012,02,22,02,04,5.50
2012,02,22,02,05,5.50
2012,02,22,02,06,5.50
2012,02,22,02,07,5.50
2012,02,22,02,08,5.50
2012,02,22,02,09,5.50
2012,02,22,02,10,5.40
2012,02,22,02,11,5.50
2012,02,22,02,12,5.40
2012,02,22,02,13,5.40
2012,02,22,02,14,5.40
2012,02,22,02,15,5.40
2012,02,22,02,16,5.40
2012,02,22,02,17,5.40
2012,02,22,02,18,5.40
2012,02,22,02,19,5.40
2012,02,22,02,20,5.40
2012,02,22,02,21,5.40
2012,02,22,02,22,5.40
2012,02,22,02,23,5.40
2012,02,22,02,24,5.40
2012,02,22,02,25,5.40
2012,02,22,02,26,5.40
2012,02,22,02,27,5.40
2012,02,22,02,28,5.40
2012,02,22,02,29,5.40
2012,02,22,02,30,5.40
2012,02,22,02,31,5.40
2012,02,22,02,32,5.40
2012,02,22,02,33,5.40
2012,02,22,02,34,5.40
2012,02,22,02,35,5.40
2012,02,22,02,36,5.40
2012,02,22,02,37,5.40
2012,02,22,02,38,5.40
2012,02,22,02,39,5.40
2012,02,22,02,40,5.40
2012,02,22,02,41,5.40
2012,02,22,02,42,5.40
2012,02,22,02,43,5.40
2012,02,22,02,44,5.40
2012,02,22,02,45,5.40
2012,02,22,02,46,5.40
2012,02,22,02,47,5.40
2012,02,22,02,48,5.40
2012,02,22,02,49,5.40
2012,02,22,02,50,5.40
2012,02,22,02,51,5.40
2012,02,22,02,52,5.40
2012,02,22,02,53,5.40
2012,02,22,02,54,5.40
2012,02,22,02,55,5.30
2012,02,22,02,56,5.30
2012,02,22,02,57,5.30
2012,02,22,02,58,5.30
2012,02,22,02,59,5.30
2012,02,22,03,00,5.30
2012,02,22,03,01,5.30
2012,02,22,03,02,5.30
2012,02,22,03,03,5.30
2012,02,22,03,04,5.30
2012,02,22,03,05,5.30
2012,02,22,03,06,5.30
2012,02,22,03,07,5.30
2012,02,22,03,08,5.30
2012,02,22,03,09,5.30
2012,02,22,03,10,5.30
2012,02,22,03,11,5.30
2012,02,22,03,12,5.30
2012,02,22,03,13,5.30
2012,02,22,03,14,5.20
2012,02,22,03,15,5.20
2012,02,22,03,16,5.20
2012,02,22,03,17,5.20
2012,02,22,03,18,5.20
2012,02,22,03,19,5.20
2012,02,22,03,20,5.10
2012,02,22,03,21,5.10
2012,02,22,03,22,5.10
2012,02,22,03,23,5.10
2012,02,22,03,24,5.10
2012,02,22,03,25,5.10
2012,02,22,03,26,5.10
2012,02,22,03,27,5.10
2012,02,22,03,28,5.10
2012,02,22,03,29,5.10
2012,02,22,03,30,5.10
2012,02,22,03,31,5.10
2012,02,22,03,32,5.00
2012,02,22,03,33,5.00
2012,02,22,03,34,5.00
2012,02,22,03,35,5.00
2012,02,22,03,36,5.00
2012,02,22,03,37,5.00
2012,02,22,03,38,5.00
2012,02,22,03,39,4.90
2012,02,22,03,40,4.90
2012,02,22,03,41,4.90
2012,02,22,03,42,4.90
2012,02,22,03,43,4.90
2012,02,22,03,44,4.80
2012,02,22,03,45,4.80
2012,02,22,03,46,4.80
2012,02,22,03,47,4.80
2012,02,22,03,48,4.80
2012,02,22,03,49,4.80
2012,02,22,03,50,4.80
2012,02,22,03,51,4.80
2012,02,22,03,52,4.80
2012,02,22,03,53,4.70
2012,02,22,03,54,4.70
2012,02,22,03,55,4.70
2012,02,22,03,56,4.70
2012,02,22,03,57,4.60
2012,02,22,03,58,4.60
2012,02,22,03,59,4.60
2012,02,22,04,00,4.60
2012,02,22,04,01,4.50
2012,02,22,04,02,4.40
2012,02,22,04,03,4.40
2012,02,22,04,04,4.40
2012,02,22,04,05,4.40
2012,02,22,04,06,4.50
2012,02,22,04,07,4.70
2012,02,22,04,08,5.00
2012,02,22,04,09,5.40
2012,02,22,04,10,5.80
2012,02,22,04,11,6.30
2012,02,22,04,12,6.70
2012,02,22,04,13,6.90
2012,02,22,04,14,7.10
2012,02,22,04,15,7.30
2012,02,22,04,16,7.50
2012,02,22,04,17,7.60
2012,02,22,04,18,7.80
2012,02,22,04,19,8.00
2012,02,22,04,20,8.10
2012,02,22,04,21,8.20
2012,02,22,04,22,8.10
2012,02,22,04,23,8.10
2012,02,22,04,24,8.00
2012,02,22,04,25,8.00
2012,02,22,04,26,7.90
2012,02,22,04,27,7.90
2012,02,22,04,28,7.90
2012,02,22,04,29,7.90
2012,02,22,04,30,8.00
2012,02,22,04,31,8.00
2012,02,22,04,32,8.00
2012,02,22,04,33,8.00
2012,02,22,04,34,8.00
2012,02,22,04,35,8.00
2012,02,22,04,36,7.90
2012,02,22,04,37,7.80
2012,02,22,04,38,7.80
2012,02,22,04,39,7.70
2012,02,22,04,40,7.70
2012,02,22,04,41,7.60
2012,02,22,04,42,7.70
2012,02,22,04,43,7.70
2012,02,22,04,44,7.70
2012,02,22,04,45,7.60
2012,02,22,04,46,7.60
2012,02,22,04,47,7.50
2012,02,22,04,48,7.50
2012,02,22,04,49,7.40
2012,02,22,04,50,7.40
2012,02,22,04,51,7.30
2012,02,22,04,52,7.30
2012,02,22,04,53,7.30
2012,02,22,04,54,7.20
2012,02,22,04,55,7.20
2012,02,22,04,56,7.20
2012,02,22,04,57,7.30
2012,02,22,04,58,7.40
2012,02,22,04,59,7.40
2012,02,22,05,00,7.50
2012,02,22,05,01,7.50
2012,02,22,05,02,7.50
2012,02,22,05,03,7.50
2012,02,22,05,04,7.60
2012,02,22,05,05,7.60
2012,02,22,05,06,7.60
2012,02,22,05,07,7.60
2012,02,22,05,08,7.60
2012,02,22,05,09,7.70
2012,02,22,05,10,7.70
2012,02,22,05,11,7.60
2012,02,22,05,12,7.60
2012,02,22,05,13,7.50
2012,02,22,05,14,7.40
2012,02,22,05,15,7.30
2012,02,22,05,16,7.20
2012,02,22,05,17,7.00
2012,02,22,05,18,6.90
2012,02,22,05,19,6.80
2012,02,22,05,20,6.60
2012,02,22,05,21,6.50
2012,02,22,05,22,6.40
2012,02,22,05,23,6.30
2012,02,22,05,24,6.20
2012,02,22,05,25,6.00
2012,02,22,05,26,5.90
2012,02,22,05,27,5.80
2012,02,22,05,28,5.80
2012,02,22,05,29,5.70
2012,02,22,05,30,5.70
2012,02,22,05,31,5.80
2012,02,22,05,32,5.80
2012,02,22,05,33,5.90
2012,02,22,05,34,6.00
2012,02,22,05,35,6.10
2012,02,22,05,36,6.20
2012,02,22,05,37,6.30
2012,02,22,05,38,6.40
2012,02,22,05,39,6.50
2012,02,22,05,40,6.60
2012,02,22,05,41,6.70
2012,02,22,05,42,6.80
2012,02,22,05,43,6.80
2012,02,22,05,44,6.80
2012,02,22,05,45,6.90
2012,02,22,05,46,6.90
2012,02,22,05,47,6.90
2012,02,22,05,48,6.90
2012,02,22,05,49,6.90
2012,02,22,05,50,6.90
2012,02,22,05,51,7.00
2012,02,22,05,52,7.00
2012,02,22,05,53,7.10
2012,02,22,05,54,7.20
2012,02,22,05,55,7.20
2012,02,22,05,56,7.20
2012,02,22,05,57,7.20
2012,02,22,05,58,7.20
2012,02,22,05,59,7.10
2012,02,22,06,00,7.10
2012,02,22,06,01,7.10
2012,02,22,06,02,7.00
2012,02,22,06,03,7.00
2012,02,22,06,04,6.90
2012,02,22,06,05,6.90
2012,02,22,06,06,6.80
2012,02,22,06,07,6.80
2012,02,22,06,08,6.70
2012,02,22,06,09,6.60
2012,02,22,06,10,6.50
2012,02,22,06,11,6.40
2012,02,22,06,12,6.30
2012,02,22,06,13,6.20
2012,02,22,06,14,6.10
2012,02,22,06,15,5.90
2012,02,22,06,16,5.70
2012,02,22,06,17,5.50
2012,02,22,06,18,5.30
2012,02,22,06,19,5.20
2012,02,22,06,20,5.10
2012,02,22,06,21,5.10
2012,02,22,06,22,5.00
2012,02,22,06,23,4.90
2012,02,22,06,24,4.90
2012,02,22,06,25,4.80
2012,02,22,06,26,4.80
2012,02,22,06,27,4.70
2012,02,22,06,28,4.60
2012,02,22,06,29,4.60
2012,02,22,06,30,4.50
2012,02,22,06,31,4.40
2012,02,22,06,32,4.30
2012,02,22,06,33,4.30
2012,02,22,06,34,4.20
2012,02,22,06,35,4.10
2012,02,22,06,36,4.00
2012,02,22,06,37,4.00
2012,02,22,06,38,3.90
2012,02,22,06,39,3.90
2012,02,22,06,40,4.00
2012,02,22,06,41,4.10
2012,02,22,06,42,4.20
2012,02,22,06,43,4.40
2012,02,22,06,44,4.40
2012,02,22,06,45,4.50
2012,02,22,06,46,4.50
2012,02,22,06,47,4.40
2012,02,22,06,48,4.40
2012,02,22,06,49,4.30
2012,02,22,06,50,4.30
2012,02,22,06,51,4.20
2012,02,22,06,52,4.00
2012,02,22,06,53,3.90
2012,02,22,06,54,3.80
2012,02,22,06,55,3.70
2012,02,22,06,56,3.70
2012,02,22,06,57,3.60
2012,02,22,06,58,3.60
2012,02,22,06,59,3.60
2012,02,22,07,00,3.60
2012,02,22,07,01,3.60
2012,02,22,07,02,3.60
2012,02,22,07,03,3.60
2012,02,22,07,04,3.60
2012,02,22,07,05,3.70
2012,02,22,07,06,3.80
2012,02,22,07,07,3.90
2012,02,22,07,08,4.10
2012,02,22,07,09,4.10
2012,02,22,07,10,4.20
2012,02,22,07,11,4.10
2012,02,22,07,12,3.90
2012,02,22,07,13,3.80
2012,02,22,07,14,3.70
2012,02,22,07,15,3.60
2012,02,22,07,16,3.50
2012,02,22,07,17,3.50
2012,02,22,07,18,3.30
2012,02,22,07,19,3.20
2012,02,22,07,20,3.10
2012,02,22,07,21,3.10
2012,02,22,07,22,3.00
2012,02,22,07,23,2.90
2012,02,22,07,24,2.90
2012,02,22,07,25,2.90
2012,02,22,07,26,2.90
2012,02,22,07,27,2.90
2012,02,22,07,28,2.90
2012,02,22,07,29,2.80
2012,02,22,07,30,2.80
2012,02,22,07,31,2.80
2012,02,22,07,32,2.80
2012,02,22,07,33,2.80
2012,02,22,07,34,2.80
2012,02,22,07,35,2.70
2012,02,22,07,36,2.70
2012,02,22,07,37,2.70
2012,02,22,07,38,2.70
2012,02,22,07,39,2.70
2012,02,22,07,40,2.70
2012,02,22,07,41,2.80
2012,02,22,07,42,2.80
2012,02,22,07,43,2.80
2012,02,22,07,44,2.80
2012,02,22,07,45,2.80
2012,02,22,07,46,2.80
2012,02,22,07,47,2.80
2012,02,22,07,48,2.90
2012,02,22,07,49,2.90
2012,02,22,07,50,2.90
2012,02,22,07,51,2.90
2012,02,22,07,52,3.00
2012,02,22,07,53,3.00
2012,02,22,07,54,3.10
2012,02,22,07,55,3.20
2012,02,22,07,56,3.30
2012,02,22,07,57,3.30
2012,02,22,07,58,3.50
2012,02,22,07,59,3.70
2012,02,22,08,00,3.90
2012,02,22,08,01,4.10
2012,02,22,08,02,4.20
2012,02,22,08,03,4.40
2012,02,22,08,04,4.60
2012,02,22,08,05,4.80
2012,02,22,08,06,5.00
2012,02,22,08,07,5.10
2012,02,22,08,08,5.10
2012,02,22,08,09,5.10
2012,02,22,08,10,5.10
2012,02,22,08,11,5.10
2012,02,22,08,12,5.90
2012,02,22,08,13,6.00
2012,02,22,08,14,6.10
2012,02,22,08,15,6.20
2012,02,22,08,16,6.30
2012,02,22,08,17,6.30
2012,02,22,08,18,6.40
2012,02,22,08,19,6.40
2012,02,22,08,20,6.50
2012,02,22,08,21,6.50
2012,02,22,08,22,6.60
2012,02,22,08,23,6.60
2012,02,22,08,24,6.70
2012,02,22,08,25,6.70
2012,02,22,08,26,6.80
2012,02,22,08,27,6.80
2012,02,22,08,28,6.80
2012,02,22,08,29,6.90
2012,02,22,08,30,7.00
2012,02,22,08,31,7.10
2012,02,22,08,32,7.10
2012,02,22,08,33,7.20
2012,02,22,08,34,7.20
2012,02,22,08,35,7.20
2012,02,22,08,36,7.30
2012,02,22,08,37,7.40
2012,02,22,08,38,7.40
2012,02,22,08,39,7.50
2012,02,22,08,40,7.50
2012,02,22,08,41,7.60
2012,02,22,08,42,7.60
2012,02,22,08,43,7.70
2012,02,22,08,44,7.70
2012,02,22,08,45,7.70
2012,02,22,08,46,7.80
2012,02,22,08,47,7.80
2012,02,22,08,48,7.80
2012,02,22,08,49,7.90
2012,02,22,08,50,7.90
2012,02,22,08,51,8.00
2012,02,22,08,52,8.00
2012,02,22,08,53,8.10
2012,02,22,08,54,8.10
2012,02,22,08,55,8.20
2012,02,22,08,56,8.20
2012,02,22,08,57,8.20
2012,02,22,08,58,8.20
2012,02,22,08,59,8.30
2012,02,22,09,00,8.30
2012,02,22,09,01,8.30
2012,02,22,09,02,8.30
2012,02,22,09,03,8.30
2012,02,22,09,04,8.30
2012,02,22,09,05,8.30
2012,02,22,09,06,8.40
2012,02,22,09,07,8.40
2012,02,22,09,08,8.40
2012,02,22,09,09,8.40
2012,02,22,09,10,8.40
2012,02,22,09,11,8.40
2012,02,22,09,12,8.40
2012,02,22,09,13,8.50
2012,02,22,09,14,8.50
2012,02,22,09,15,8.50
2012,02,22,09,16,8.50
2012,02,22,09,17,8.60
2012,02,22,09,18,8.60
2012,02,22,09,19,8.60
2012,02,22,09,20,8.60
2012,02,22,09,21,8.60
2012,02,22,09,22,8.70
2012,02,22,09,23,8.70
2012,02,22,09,24,8.70
2012,02,22,09,25,8.70
2012,02,22,09,26,8.70
2012,02,22,09,27,8.70
2012,02,22,09,28,8.80
2012,02,22,09,29,8.80
2012,02,22,09,30,8.80
2012,02,22,09,31,8.80
2012,02,22,09,32,8.80
2012,02,22,09,33,8.80
2012,02,22,09,34,8.80
2012,02,22,09,35,8.80
2012,02,22,09,36,8.80
2012,02,22,09,37,8.80
2012,02,22,09,38,8.80
2012,02,22,09,39,8.80
2012,02,22,09,40,8.80
2012,02,22,09,41,8.80
2012,02,22,09,42,8.80
2012,02,22,09,43,8.80
2012,02,22,09,44,8.80
2012,02,22,09,45,8.80
2012,02,22,09,46,8.80
2012,02,22,09,47,8.80
2012,02,22,09,48,8.80
2012,02,22,09,49,8.80
2012,02,22,09,50,8.90
2012,02,22,09,51,8.90
2012,02,22,09,52,8.90
2012,02,22,09,53,8.90
2012,02,22,09,54,9.00
2012,02,22,09,55,9.00
2012,02,22,09,56,9.10
2012,02,22,09,57,9.10
2012,02,22,09,58,9.20
2012,02,22,09,59,9.20
2012,02,22,10,00,9.20
2012,02,22,10,01,9.30
2012,02,22,10,02,9.30
2012,02,22,10,03,9.30
2012,02,22,10,04,9.40
2012,02,22,10,05,9.40
2012,02,22,10,06,9.40
2012,02,22,10,07,9.40
2012,02,22,10,08,9.50
2012,02,22,10,09,9.50
2012,02,22,10,10,9.50
2012,02,22,10,11,9.60
2012,02,22,10,12,9.60
2012,02,22,10,13,9.60
2012,02,22,10,14,9.60
2012,02,22,10,15,9.60
2012,02,22,10,16,9.60
2012,02,22,10,17,9.70
2012,02,22,10,18,9.70
2012,02,22,10,19,9.70
2012,02,22,10,20,9.70
2012,02,22,10,21,9.80
2012,02,22,10,22,9.80
2012,02,22,10,23,9.90
2012,02,22,10,24,9.90
2012,02,22,10,25,9.90
2012,02,22,10,26,9.90
2012,02,22,10,27,9.80
2012,02,22,10,28,9.80
2012,02,22,10,29,9.80
2012,02,22,10,30,9.80
2012,02,22,10,31,9.70
2012,02,22,10,32,9.70
2012,02,22,10,33,9.60
2012,02,22,10,34,9.60
2012,02,22,10,35,9.60
2012,02,22,10,36,9.60
2012,02,22,10,37,9.60
2012,02,22,10,38,9.60
2012,02,22,10,39,9.60
2012,02,22,10,40,9.60
2012,02,22,10,41,9.60
2012,02,22,10,42,9.70
2012,02,22,10,43,9.70
2012,02,22,10,44,9.70
2012,02,22,10,45,9.80
2012,02,22,10,46,9.80
2012,02,22,10,47,9.80
2012,02,22,10,48,9.90
2012,02,22,10,49,9.90
2012,02,22,10,50,10.00
2012,02,22,10,51,10.00
2012,02,22,10,52,10.00
2012,02,22,10,53,10.10
2012,02,22,10,54,10.10
2012,02,22,10,55,10.10
2012,02,22,10,56,10.20
2012,02,22,10,57,10.20
2012,02,22,10,58,10.20
2012,02,22,10,59,10.20
2012,02,22,11,00,10.30
2012,02,22,11,01,10.30
2012,02,22,11,02,10.30
2012,02,22,11,03,10.30
2012,02,22,11,04,10.30
2012,02,22,11,05,10.30
2012,02,22,11,06,10.40
2012,02,22,11,07,10.40
2012,02,22,11,08,10.40
2012,02,22,11,09,10.40
2012,02,22,11,10,10.50
2012,02,22,11,11,10.50
2012,02,22,11,12,10.60
2012,02,22,11,13,10.50
2012,02,22,11,14,10.50
2012,02,22,11,15,10.50
2012,02,22,11,16,10.50
2012,02,22,11,17,10.50
2012,02,22,11,18,10.50
2012,02,22,11,19,10.50
2012,02,22,11,20,10.50
2012,02,22,11,21,10.60
2012,02,22,11,22,10.60
2012,02,22,11,23,10.60
2012,02,22,11,24,10.60
2012,02,22,11,25,10.60
2012,02,22,11,26,10.60
2012,02,22,11,27,10.60
2012,02,22,11,28,10.60
2012,02,22,11,29,10.50
2012,02,22,11,30,10.50
2012,02,22,11,31,10.50
2012,02,22,11,32,10.50
2012,02,22,11,33,10.50
2012,02,22,11,34,10.50
2012,02,22,11,35,10.50
2012,02,22,11,36,10.60
2012,02,22,11,37,10.60
2012,02,22,11,38,10.60
2012,02,22,11,39,10.60
2012,02,22,11,40,10.60
2012,02,22,11,41,10.70
2012,02,22,11,42,10.70
2012,02,22,11,43,10.70
2012,02,22,11,44,10.70
2012,02,22,11,45,10.80
2012,02,22,11,46,10.80
2012,02,22,11,47,10.80
2012,02,22,11,48,10.80
2012,02,22,11,49,10.80
2012,02,22,11,50,10.80
2012,02,22,11,51,10.80
2012,02,22,11,52,10.80
2012,02,22,11,53,10.80
2012,02,22,11,54,10.80
2012,02,22,11,55,10.80
2012,02,22,11,56,10.80
2012,02,22,11,57,10.80
2012,02,22,11,58,10.80
2012,02,22,11,59,10.80
2012,02,22,12,00,10.80
2012,02,22,12,01,10.80
2012,02,22,12,02,10.90
2012,02,22,12,03,10.90
2012,02,22,12,04,10.90
2012,02,22,12,05,10.90
2012,02,22,12,06,10.90
2012,02,22,12,07,11.00
2012,02,22,12,08,11.00
2012,02,22,12,09,11.00
2012,02,22,12,10,11.00
2012,02,22,12,11,11.00
2012,02,22,12,12,11.00
2012,02,22,12,13,11.10
2012,02,22,12,14,11.10
2012,02,22,12,15,11.10
2012,02,22,12,16,11.10
2012,02,22,12,17,11.10
2012,02,22,12,18,11.20
2012,02,22,12,19,11.20
2012,02,22,12,20,11.20
2012,02,22,12,21,11.20
2012,02,22,12,22,11.20
2012,02,22,12,23,11.20
2012,02,22,12,24,11.20
2012,02,22,12,25,11.20
2012,02,22,12,26,11.20
2012,02,22,12,27,11.20
2012,02,22,12,28,11.20
2012,02,22,12,29,11.30
2012,02,22,12,30,11.30
2012,02,22,12,31,11.30
2012,02,22,12,32,11.20
2012,02,22,12,33,11.20
2012,02,22,12,34,11.20
2012,02,22,12,35,11.10
2012,02,22,12,36,11.10
2012,02,22,12,37,11.10
2012,02,22,12,38,11.00
2012,02,22,12,39,11.00
2012,02,22,12,40,10.90
2012,02,22,12,41,10.90
2012,02,22,12,42,10.90
2012,02,22,12,43,10.90
2012,02,22,12,44,10.90
2012,02,22,12,45,10.90
2012,02,22,12,46,10.90
2012,02,22,12,47,10.90
2012,02,22,12,48,11.00
2012,02,22,12,49,11.00
2012,02,22,12,50,11.00
2012,02,22,12,51,11.10
2012,02,22,12,52,11.10
2012,02,22,12,53,11.00
2012,02,22,12,54,11.00
2012,02,22,12,55,10.90
2012,02,22,12,56,10.90
2012,02,22,12,57,10.80
2012,02,22,12,58,10.80
2012,02,22,12,59,10.80
2012,02,22,13,00,10.80
2012,02,22,13,01,10.80
2012,02,22,13,02,10.90
2012,02,22,13,03,10.90
2012,02,22,13,04,11.00
2012,02,22,13,05,11.00
2012,02,22,13,06,11.00
2012,02,22,13,07,11.00
2012,02,22,13,08,10.90
2012,02,22,13,09,10.90
2012,02,22,13,10,10.90
2012,02,22,13,11,10.90
2012,02,22,13,12,11.00
2012,02,22,13,13,11.00
2012,02,22,13,14,11.00
2012,02,22,13,15,11.00
2012,02,22,13,16,11.00
2012,02,22,13,17,11.10
2012,02,22,13,18,11.20
2012,02,22,13,19,11.20
2012,02,22,13,20,11.20
2012,02,22,13,21,11.20
2012,02,22,13,22,11.10
2012,02,22,13,23,11.10
2012,02,22,13,24,11.20
2012,02,22,13,25,11.20
2012,02,22,13,26,11.20
2012,02,22,13,27,11.30
2012,02,22,13,28,11.30
2012,02,22,13,29,11.30
2012,02,22,13,30,11.30
2012,02,22,13,31,11.40
2012,02,22,13,32,11.40
2012,02,22,13,33,11.40
2012,02,22,13,34,11.40
2012,02,22,13,35,11.40
2012,02,22,13,36,11.40
2012,02,22,13,37,11.40
2012,02,22,13,38,11.50
2012,02,22,13,39,11.50
2012,02,22,13,40,11.50
2012,02,22,13,41,11.50
2012,02,22,13,42,11.40
2012,02,22,13,43,11.40
2012,02,22,13,44,11.50
2012,02,22,13,45,11.50
2012,02,22,13,46,11.50
2012,02,22,13,47,11.60
2012,02,22,13,48,11.60
2012,02,22,13,49,11.60
2012,02,22,13,50,11.60
2012,02,22,13,51,11.60
2012,02,22,13,52,11.60
2012,02,22,13,53,11.50
2012,02,22,13,54,11.50
2012,02,22,13,55,11.50
2012,02,22,13,56,11.50
2012,02,22,13,57,11.40
2012,02,22,13,58,11.40
2012,02,22,13,59,11.40
2012,02,22,14,00,11.40
2012,02,22,14,01,11.40
2012,02,22,14,02,11.50
2012,02,22,14,03,11.60
2012,02,22,14,04,11.60
2012,02,22,14,05,11.60
2012,02,22,14,06,11.60
2012,02,22,14,07,11.60
2012,02,22,14,08,11.60
2012,02,22,14,09,11.60
2012,02,22,14,10,11.60
2012,02,22,14,11,11.70
2012,02,22,14,12,11.70
2012,02,22,14,13,11.70
2012,02,22,14,14,11.70
2012,02,22,14,15,11.60
2012,02,22,14,16,11.60
2012,02,22,14,17,11.50
2012,02,22,14,18,11.50
2012,02,22,14,19,11.50
2012,02,22,14,20,11.50
2012,02,22,14,21,11.50
2012,02,22,14,22,11.50
2012,02,22,14,23,11.50
2012,02,22,14,24,11.50
2012,02,22,14,25,11.50
2012,02,22,14,26,11.50
2012,02,22,14,27,11.50
2012,02,22,14,28,11.50
2012,02,22,14,29,11.50
2012,02,22,14,30,11.50
2012,02,22,14,31,11.40
2012,02,22,14,32,11.40
2012,02,22,14,33,11.40
2012,02,22,14,34,11.40
2012,02,22,14,35,11.40
2012,02,22,14,36,11.40
2012,02,22,14,37,11.50
2012,02,22,14,38,11.50
2012,02,22,14,39,11.60
2012,02,22,14,40,11.60
2012,02,22,14,41,11.60
2012,02,22,14,42,11.60
2012,02,22,14,43,11.50
2012,02,22,14,44,11.40
2012,02,22,14,45,11.30
2012,02,22,14,46,11.10
2012,02,22,14,47,11.00
2012,02,22,14,48,10.90
2012,02,22,14,49,10.80
2012,02,22,14,50,10.70
2012,02,22,14,51,10.60
2012,02,22,14,52,10.50
2012,02,22,14,53,10.40
2012,02,22,14,54,10.30
2012,02,22,14,55,10.30
2012,02,22,14,56,10.30
2012,02,22,14,57,10.20
2012,02,22,14,58,10.20
2012,02,22,14,59,10.20
2012,02,22,15,00,10.20
2012,02,22,15,01,10.20
2012,02,22,15,02,10.20
2012,02,22,15,03,10.10
2012,02,22,15,04,10.10
2012,02,22,15,05,10.10
2012,02,22,15,06,10.00
2012,02,22,15,07,10.00
2012,02,22,15,08,9.90
2012,02,22,15,09,9.80
2012,02,22,15,10,9.70
2012,02,22,15,11,9.50
2012,02,22,15,12,9.40
2012,02,22,15,13,9.30
2012,02,22,15,14,9.20
2012,02,22,15,15,9.20
2012,02,22,15,16,9.10
2012,02,22,15,17,9.00
2012,02,22,15,18,8.90
2012,02,22,15,19,8.90
2012,02,22,15,20,8.80
2012,02,22,15,21,8.80
2012,02,22,15,22,8.70
2012,02,22,15,23,8.70
2012,02,22,15,24,8.70
2012,02,22,15,25,8.70
2012,02,22,15,26,8.70
2012,02,22,15,27,8.70
2012,02,22,15,28,8.70
2012,02,22,15,29,8.70
2012,02,22,15,30,8.70
2012,02,22,15,31,8.70
2012,02,22,15,32,8.70
2012,02,22,15,33,8.70
2012,02,22,15,34,8.70
2012,02,22,15,35,8.80
2012,02,22,15,36,8.80
2012,02,22,15,37,8.80
2012,02,22,15,38,8.80
2012,02,22,15,39,8.80
2012,02,22,15,40,8.80
2012,02,22,15,41,8.80
2012,02,22,15,42,8.80
2012,02,22,15,43,8.80
2012,02,22,15,44,8.80
2012,02,22,15,45,8.80
2012,02,22,15,46,8.80
2012,02,22,15,47,8.80
2012,02,22,15,48,8.90
2012,02,22,15,49,8.80
2012,02,22,15,50,8.80
2012,02,22,15,51,8.80
2012,02,22,15,52,8.80
2012,02,22,15,53,8.80
2012,02,22,15,54,8.80
2012,02,22,15,55,8.80
2012,02,22,15,56,8.80
2012,02,22,15,57,8.80
2012,02,22,15,58,8.80
2012,02,22,15,59,8.80
2012,02,22,16,00,8.80
2012,02,22,16,01,8.80
2012,02,22,16,02,8.80
2012,02,22,16,03,8.80
2012,02,22,16,04,8.80
2012,02,22,16,05,8.90
2012,02,22,16,06,8.90
2012,02,22,16,07,8.90
2012,02,22,16,08,8.80
2012,02,22,16,09,8.80
2012,02,22,16,10,8.80
2012,02,22,16,11,8.80
2012,02,22,16,12,8.80
2012,02,22,16,13,8.80
2012,02,22,16,14,8.80
2012,02,22,16,15,8.80
2012,02,22,16,16,8.70
2012,02,22,16,17,8.70
2012,02,22,16,18,8.70
2012,02,22,16,19,8.80
2012,02,22,16,20,8.80
2012,02,22,16,21,8.70
2012,02,22,16,22,8.70
2012,02,22,16,23,8.70
2012,02,22,16,24,8.70
2012,02,22,16,25,8.70
2012,02,22,16,26,8.70
2012,02,22,16,27,8.70
2012,02,22,16,28,8.70
2012,02,22,16,29,8.70
2012,02,22,16,30,8.70
2012,02,22,16,31,8.70
2012,02,22,16,32,8.70
2012,02,22,16,33,8.70
2012,02,22,16,34,8.70
2012,02,22,16,35,8.70
2012,02,22,16,36,8.70
2012,02,22,16,37,8.70
2012,02,22,16,38,8.70
2012,02,22,16,39,8.70
2012,02,22,16,40,8.70
2012,02,22,16,41,8.70
2012,02,22,16,42,8.60
2012,02,22,16,43,8.60
2012,02,22,16,44,8.60
2012,02,22,16,45,8.60
2012,02,22,16,46,8.60
2012,02,22,16,47,8.70
2012,02,22,16,48,8.70
2012,02,22,16,49,8.70
2012,02,22,16,50,8.70
2012,02,22,16,51,8.70
2012,02,22,16,52,8.70
2012,02,22,16,53,8.70
2012,02,22,16,54,8.80
2012,02,22,16,55,8.80
2012,02,22,16,56,8.80
2012,02,22,16,57,8.80
2012,02,22,16,58,8.80
2012,02,22,16,59,8.80
2012,02,22,17,00,8.70
2012,02,22,17,01,8.70
2012,02,22,17,02,8.70
2012,02,22,17,03,8.60
2012,02,22,17,04,8.60
2012,02,22,17,05,8.60
2012,02,22,17,06,8.60
2012,02,22,17,07,8.60
2012,02,22,17,08,8.60
2012,02,22,17,09,8.60
2012,02,22,17,10,8.60
2012,02,22,17,11,8.60
2012,02,22,17,12,8.60
2012,02,22,17,13,8.50
2012,02,22,17,14,8.50
2012,02,22,17,15,8.50
2012,02,22,17,16,8.40
2012,02,22,17,17,8.40
2012,02,22,17,18,8.40
2012,02,22,17,19,8.30
2012,02,22,17,20,8.30
2012,02,22,17,21,8.30
2012,02,22,17,22,8.20
2012,02,22,17,23,8.20
2012,02,22,17,24,8.10
2012,02,22,17,25,8.10
2012,02,22,17,26,8.10
2012,02,22,17,27,8.00
2012,02,22,17,28,8.00
2012,02,22,17,29,7.90
2012,02,22,17,30,7.90
2012,02,22,17,31,7.90
2012,02,22,17,32,7.80
2012,02,22,17,33,7.80
2012,02,22,17,34,7.80
2012,02,22,17,35,7.80
2012,02,22,17,36,7.70
2012,02,22,17,37,7.70
2012,02,22,17,38,7.70
2012,02,22,17,39,7.70
2012,02,22,17,40,7.60
2012,02,22,17,41,7.60
2012,02,22,17,42,7.60
2012,02,22,17,43,7.60
2012,02,22,17,44,7.50
2012,02,22,17,45,7.50
2012,02,22,17,46,7.50
2012,02,22,17,47,7.40
2012,02,22,17,48,7.40
2012,02,22,17,49,7.40
2012,02,22,17,50,7.40
2012,02,22,17,51,7.40
2012,02,22,17,52,7.30
2012,02,22,17,53,7.30
2012,02,22,17,54,7.30
2012,02,22,17,55,7.30